GW3385 Weather Reports


Display with metric or nautical units.
time (UTC)temp
F
wind
direction
speed
MPH
gust
MPH
rain 1hr
in
rain 24hr
in
rain mn
in
humidity
%
barometer
mb
20260507214600 67 261 9.0 14.0 0.00 0.00 0.00 72 1013.7
20260507214054 67 253 5.0 14.0 0.00 0.00 0.00 73 1013.8
20260507213556 67 271 7.0 15.0 0.00 0.00 0.00 73 1013.8
20260507213056 66 265 10.0 15.0 0.00 0.00 0.00 74 1013.9
20260507212553 67 220 5.0 12.0 0.00 0.00 0.00 74 1013.9
20260507212051 67 225 5.0 12.0 0.00 0.00 0.00 74 1013.9
20260507211555 67 291 7.0 12.0 0.00 0.00 0.00 73 1013.9
20260507211054 67 265 7.0 12.0 0.00 0.00 0.00 74 1014.0
20260507210558 67 264 5.0 12.0 0.00 0.00 0.00 74 1014.0
20260507210055 67 215 6.0 12.0 0.00 0.00 0.00 74 1014.1
20260507205555 67 171 6.0 13.0 0.00 0.00 0.00 72 1014.2
20260507205055 67 221 7.0 16.0 0.00 0.00 0.00 73 1014.2
20260507204558 67 192 8.0 16.0 0.00 0.00 0.00 73 1014.2
20260507204054 68 132 9.0 13.0 0.00 0.00 0.00 72 1014.1
20260507203555 68 208 4.0 14.0 0.00 0.00 0.00 73 1014.2
20260507203059 68 207 5.0 14.0 0.00 0.00 0.00 72 1014.3
20260507202557 68 219 6.0 13.0 0.00 0.00 0.00 73 1014.3
20260507202054 68 204 7.0 14.0 0.00 0.00 0.00 73 1014.3
20260507201559 67 177 5.0 14.0 0.00 0.00 0.00 73 1014.4
20260507201051 67 190 6.0 12.0 0.00 0.00 0.00 74 1014.4
20260507200555 67 266 6.0 11.0 0.00 0.00 0.00 72 1014.4
20260507200109 67 182 5.0 11.0 0.00 0.00 0.00 72 1014.6
20260507195554 67 282 6.0 11.0 0.00 0.00 0.00 73 1014.7
20260507195051 67 285 8.0 11.0 0.00 0.00 0.00 72 1014.6
20260507194555 67 304 4.0 10.0 0.00 0.00 0.00 73 1014.7
20260507194054 67 269 4.0 13.0 0.00 0.00 0.00 73 1014.8
20260507193554 67 196 6.0 13.0 0.00 0.00 0.00 73 1014.8
20260507193056 67 192 6.0 13.0 0.00 0.00 0.00 72 1014.8
20260507192554 67 184 4.0 12.0 0.00 0.00 0.00 72 1014.9
20260507192059 67 209 7.0 12.0 0.00 0.00 0.00 72 1014.9
20260507191558 67 323 4.0 11.0 0.00 0.00 0.00 73 1015.0
20260507191055 67 180 6.0 11.0 0.00 0.00 0.00 73 1015.0
20260507190555 67 211 4.0 11.0 0.00 0.00 0.00 73 1015.0
20260507190057 67 168 4.0 10.0 0.00 0.00 0.00 73 1015.0
20260507185554 67 192 5.0 10.0 0.00 0.00 0.00 72 1015.0
20260507185051 67 267 3.0 9.0 0.00 0.00 0.00 73 1015.1
20260507184603 67 183 4.0 9.0 0.00 0.00 0.00 73 1015.1
20260507184054 66 224 4.0 10.0 0.00 0.00 0.00 74 1015.1
20260507183554 66 179 5.0 10.0 0.00 0.00 0.00 74 1015.1
20260507183054 66 189 4.0 10.0 0.00 0.00 0.00 73 1015.1
20260507182556 66 214 4.0 8.0 0.00 0.00 0.00 73 1015.2
20260507182055 66 257 4.0 10.0 0.00 0.00 0.00 73 1015.2
20260507181602 66 207 3.0 10.0 0.00 0.00 0.00 73 1015.2
20260507181054 66 257 4.0 9.0 0.00 0.00 0.00 74 1015.2
20260507180555 66 195 5.0 9.0 0.00 0.00 0.00 74 1015.1
20260507180053 66 300 4.0 9.0 0.00 0.00 0.00 74 1015.0
20260507175558 66 271 4.0 14.0 0.00 0.00 0.00 74 1015.0
20260507175054 66 178 4.0 14.0 0.00 0.00 0.00 75 1015.0
20260507174559 66 176 6.0 11.0 0.00 0.00 0.00 74 1015.1
20260507174055 66 213 3.0 10.0 0.00 0.00 0.00 74 1015.0
20260507173554 66 260 5.0 9.0 0.00 0.00 0.00 74 1015.1
20260507173053 66 250 4.0 9.0 0.00 0.00 0.00 73 1015.2
20260507172558 66 288 3.0 7.0 0.00 0.00 0.00 73 1015.2
20260507172055 66 245 4.0 7.0 0.00 0.00 0.00 74 1015.1
20260507171606 66 0 2.0 6.0 0.00 0.00 0.00 74 1015.2
20260507171055 66 221 1.0 8.0 0.00 0.00 0.00 77 1015.1
20260507170555 65 277 2.0 8.0 0.00 0.00 0.00 77 1015.3
20260507170057 65 159 2.0 7.0 0.00 0.00 0.00 78 1015.2
20260507165554 64 183 2.0 9.0 0.00 0.00 0.00 78 1015.3
20260507165055 64 197 2.0 9.0 0.00 0.00 0.00 78 1015.3
20260507164558 64 238 4.0 9.0 0.00 0.00 0.00 79 1015.4
20260507164058 64 254 3.0 8.0 0.00 0.00 0.00 79 1015.4
20260507163554 64 177 2.0 9.0 0.00 0.00 0.00 80 1015.4
20260507163101 63 196 2.0 9.0 0.00 0.00 0.00 80 1015.5
20260507162554 63 244 2.0 7.0 0.00 0.00 0.00 80 1015.4
20260507162054 63 173 3.0 8.0 0.00 0.00 0.00 80 1015.4
20260507161604 63 172 3.0 8.0 0.00 0.00 0.00 80 1015.4
20260507161055 63 234 3.0 6.0 0.00 0.00 0.00 80 1015.5
20260507160555 63 192 2.0 6.0 0.00 0.00 0.00 79 1015.4
20260507160056 63 236 2.0 6.0 0.00 0.00 0.00 79 1015.4
20260507155554 63 268 2.0 6.0 0.00 0.00 0.00 80 1015.5
20260507155055 63 0 1.0 5.0 0.00 0.00 0.00 80 1015.6
20260507154604 63 352 3.0 5.0 0.00 0.00 0.00 80 1015.6
20260507154052 63 261 1.0 6.0 0.00 0.00 0.00 80 1015.6
20260507153552 63 195 1.0 6.0 0.00 0.00 0.00 80 1015.6
20260507153101 63 249 2.0 6.0 0.00 0.00 0.00 79 1015.5
20260507152552 63 231 1.0 4.0 0.00 0.00 0.00 80 1015.6
20260507152052 63 0 1.0 4.0 0.00 0.00 0.00 80 1015.6
20260507151554 63 182 1.0 4.0 0.00 0.00 0.00 80 1015.5
20260507151052 63 0 1.0 4.0 0.00 0.00 0.00 80 1015.6
20260507150553 63 255 0.0 3.0 0.00 0.00 0.00 81 1015.6
20260507150054 62 0 0.0 2.0 0.00 0.00 0.00 81 1015.6
20260507145553 61 0 0.0 1.0 0.00 0.00 0.00 82 1015.6
20260507145054 61 0 0.0 1.0 0.00 0.00 0.00 82 1015.5
20260507144557 60 0 0.0 2.0 0.00 0.00 0.00 82 1015.5
20260507144055 60 0 0.0 2.0 0.00 0.00 0.00 83 1015.5
20260507143552 60 0 0.0 0.0 0.00 0.00 0.00 84 1015.5
20260507143055 59 0 0.0 0.0 0.00 0.00 0.00 86 1015.5
20260507142553 59 0 0.0 0.0 0.00 0.00 0.00 86 1015.4
20260507142053 58 0 0.0 0.0 0.00 0.00 0.00 86 1015.4
20260507141558 58 0 0.0 1.0 0.00 0.00 0.00 87 1015.4
20260507141052 58 0 0.0 1.0 0.00 0.00 0.00 88 1015.3
20260507140556 58 0 0.0 0.0 0.00 0.00 0.00 89 1015.2
20260507140053 57 0 0.0 1.0 0.00 0.00 0.00 90 1015.2
20260507135556 56 0 0.0 1.0 0.00 0.00 0.00 90 1015.2
20260507135053 56 0 0.0 2.0 0.00 0.00 0.00 90 1015.2
20260507134557 55 0 0.0 2.0 0.00 0.00 0.00 90 1015.0
20260507134052 55 0 0.0 2.0 0.00 0.00 0.00 90 1015.0
20260507133553 55 0 0.0 2.0 0.00 0.00 0.00 90 1015.0
20260507133057 55 17 0.0 2.0 0.00 0.00 0.00 90 1014.9
20260507132552 55 0 0.0 2.0 0.00 0.00 0.00 89 1015.0
20260507132055 55 0 0.0 2.0 0.00 0.00 0.00 89 1015.0
20260507131603 55 5 0.0 2.0 0.00 0.00 0.00 89 1015.0
20260507131052 55 5 0.0 2.0 0.00 0.00 0.00 89 1014.9
20260507130552 54 0 0.0 1.0 0.00 0.00 0.00 89 1014.9
20260507130107 55 0 0.0 1.0 0.00 0.00 0.00 89 1014.9
20260507125555 55 0 0.0 1.0 0.00 0.00 0.00 89 1014.8
20260507125052 55 0 0.0 1.0 0.00 0.00 0.00 89 1014.8
20260507124556 55 0 0.0 0.0 0.00 0.00 0.00 88 1014.8
20260507124055 55 0 0.0 0.0 0.00 0.00 0.00 89 1014.7
20260507123555 55 0 0.0 1.0 0.00 0.00 0.00 88 1014.7
20260507123055 55 0 0.0 1.0 0.00 0.00 0.00 88 1014.7
20260507122554 55 0 0.0 2.0 0.00 0.00 0.00 89 1014.6
20260507122055 55 0 0.0 2.0 0.00 0.00 0.00 89 1014.6
20260507121604 55 5 0.0 2.0 0.00 0.00 0.00 89 1014.6
20260507121055 55 5 0.0 0.0 0.00 0.00 0.00 89 1014.6
20260507120557 55 0 0.0 3.0 0.00 0.00 0.00 89 1014.7
20260507120057 55 0 0.0 3.0 0.00 0.00 0.00 89 1014.7
20260507115555 55 0 1.0 2.0 0.00 0.00 0.00 89 1014.7
20260507115054 55 0 0.0 0.0 0.00 0.00 0.00 89 1014.7
20260507114613 55 0 0.0 0.0 0.00 0.00 0.00 89 1014.7
20260507114054 55 0 0.0 0.0 0.00 0.00 0.00 89 1014.7
20260507113555 55 0 0.0 0.0 0.00 0.00 0.00 89 1014.7
20260507113055 55 0 0.0 0.0 0.00 0.00 0.00 88 1014.8
20260507112557 55 0 0.0 0.0 0.00 0.00 0.00 89 1014.8
20260507112057 55 0 0.0 0.0 0.00 0.00 0.00 88 1014.7
20260507111552 55 0 0.0 0.0 0.00 0.00 0.00 88 1014.9
20260507111054 55 0 0.0 0.0 0.00 0.00 0.00 88 1014.9
20260507110555 55 0 0.0 0.0 0.00 0.00 0.00 88 1014.9
20260507105555 56 0 0.0 0.0 0.00 0.00 0.00 88 1014.9
20260507105054 56 0 0.0 0.0 0.00 0.00 0.00 89 1014.9
20260507104554 56 0 0.0 0.0 0.00 0.00 0.00 90 1014.9
20260507104055 56 0 0.0 0.0 0.00 0.00 0.00 89 1015.0
20260507103555 55 0 0.0 0.0 0.00 0.00 0.00 89 1015.1
20260507103054 55 0 0.0 0.0 0.00 0.00 0.00 89 1015.0
20260507102554 55 0 0.0 0.0 0.00 0.00 0.00 88 1015.0
20260507102054 55 0 0.0 1.0 0.00 0.00 0.00 89 1015.1
20260507101603 55 0 0.0 1.0 0.00 0.00 0.00 89 1015.1
20260507101055 55 0 0.0 3.0 0.00 0.00 0.00 88 1015.1
20260507100555 55 0 0.0 3.0 0.00 0.00 0.00 88 1015.1
20260507100055 55 44 0.0 0.0 0.00 0.00 0.00 88 1015.3
20260507095555 56 0 0.0 0.0 0.00 0.00 0.00 88 1015.1
20260507095056 56 0 0.0 0.0 0.00 0.00 0.00 88 1015.2
20260507094554 56 0 0.0 0.0 0.00 0.00 0.00 88 1015.3
20260507094056 56 0 0.0 0.0 0.00 0.00 0.00 88 1015.2
20260507093554 56 0 0.0 0.0 0.00 0.00 0.00 88 1015.3
20260507093057 57 0 0.0 0.0 0.00 0.00 0.00 89 1015.4
20260507092558 56 0 0.0 0.0 0.00 0.00 0.00 89 1015.3
20260507092054 56 0 0.0 0.0 0.00 0.00 0.00 89 1015.3
20260507091558 57 0 0.0 0.0 0.00 0.00 0.00 89 1015.5
20260507091054 57 0 0.0 1.0 0.00 0.00 0.00 89 1015.4
20260507090556 57 0 0.0 1.0 0.00 0.00 0.00 90 1015.5
20260507090057 57 0 0.0 2.0 0.00 0.00 0.00 89 1015.5
20260507085555 57 0 0.0 2.0 0.00 0.00 0.00 89 1015.6
20260507085055 57 0 0.0 2.0 0.00 0.00 0.00 89 1015.6
20260507084555 56 0 0.0 2.0 0.00 0.00 0.00 89 1015.7
20260507084059 56 0 0.0 3.0 0.00 0.00 0.00 89 1015.7
20260507083555 56 0 1.0 3.0 0.00 0.00 0.00 89 1015.7
20260507083055 56 49 0.0 3.0 0.00 0.00 0.00 88 1015.8
20260507082554 56 0 0.0 3.0 0.00 0.00 0.00 88 1015.8
20260507082058 56 0 0.0 2.0 0.00 0.00 0.00 88 1015.9
20260507081557 56 0 0.0 2.0 0.00 0.00 0.00 88 1016.0
20260507081054 56 0 0.0 3.0 0.00 0.00 0.00 89 1016.0
20260507080556 56 0 0.0 3.0 0.00 0.00 0.00 89 1015.9
20260507075554 57 0 1.0 3.0 0.00 0.00 0.00 90 1015.9
20260507075055 57 57 0.0 3.0 0.00 0.00 0.00 90 1015.9
20260507074609 56 0 0.0 4.0 0.00 0.00 0.00 90 1015.9
20260507074055 56 360 1.0 4.0 0.00 0.00 0.00 90 1015.9
20260507073555 57 338 1.0 3.0 0.00 0.00 0.00 90 1015.9
20260507073053 57 0 0.0 3.0 0.00 0.00 0.00 90 1016.0
20260507072555 57 0 0.0 3.0 0.00 0.00 0.00 90 1016.1
20260507072056 57 0 1.0 3.0 0.00 0.00 0.00 90 1016.2
20260507071554 57 0 0.0 3.0 0.00 0.00 0.00 90 1016.2
20260507071056 57 0 0.0 3.0 0.00 0.00 0.00 90 1016.2
20260507070555 57 0 1.0 3.0 0.00 0.00 0.00 90 1016.1
20260507070055 57 0 0.0 0.0 0.00 0.00 0.00 90 1016.2
20260507065555 57 0 0.0 0.0 0.00 0.00 0.00 90 1016.1
20260507065054 57 0 0.0 0.0 0.00 0.00 0.00 90 1016.2
20260507064554 57 0 0.0 0.0 0.00 0.00 0.00 90 1016.2
20260507064054 57 0 0.0 0.0 0.00 0.00 0.00 90 1016.3
20260507063555 57 0 0.0 0.0 0.00 0.00 0.00 90 1016.3
20260507063054 57 0 0.0 0.0 0.00 0.00 0.00 90 1016.2
20260507062555 57 0 0.0 1.0 0.00 0.00 0.00 90 1016.2
20260507062055 57 0 0.0 2.0 0.00 0.00 0.00 90 1016.2
20260507061552 57 0 0.0 3.0 0.00 0.00 0.00 90 1016.1
20260507061054 57 67 1.0 3.0 0.00 0.00 0.00 90 1016.1
20260507060554 58 63 1.0 3.0 0.00 0.00 0.00 89 1016.1
20260507060054 58 74 0.0 2.0 0.00 0.00 0.00 89 1016.2
20260507055555 58 92 0.0 3.0 0.00 0.00 0.00 89 1016.2
20260507055054 58 92 0.0 3.0 0.00 0.00 0.00 89 1016.3
20260507054636 58 92 2.0 4.0 0.00 0.00 0.00 89 1016.1
20260507054054 58 0 1.0 4.0 0.00 0.00 0.00 89 1016.1
20260507053554 58 86 0.0 3.0 0.00 0.00 0.00 89 1016.2
20260507053054 58 0 0.0 3.0 0.00 0.00 0.00 88 1016.1
20260507052555 58 92 1.0 3.0 0.00 0.00 0.00 88 1016.1
20260507052055 58 34 0.0 3.0 0.00 0.00 0.00 88 1016.1
20260507051553 58 34 0.0 3.0 0.00 0.00 0.00 88 1016.1
20260507051055 58 34 1.0 3.0 0.00 0.00 0.00 87 1016.1
20260507050555 58 0 0.0 3.0 0.00 0.00 0.00 87 1016.1
20260507050057 59 22 0.0 3.0 0.00 0.00 0.00 87 1016.1
20260507045555 59 57 0.0 2.0 0.00 0.00 0.00 87 1016.1
20260507045055 59 0 0.0 2.0 0.00 0.00 0.00 87 1016.0
20260507044601 59 0 0.0 0.0 0.00 0.00 0.00 86 1016.0
20260507044054 59 0 0.0 0.0 0.00 0.00 0.00 86 1016.0
20260507043554 59 0 0.0 0.0 0.00 0.00 0.00 86 1016.0
20260507043055 59 0 0.0 3.0 0.00 0.00 0.00 85 1016.0
20260507042554 59 0 0.0 3.0 0.00 0.00 0.00 85 1016.0
20260507042054 60 77 0.0 2.0 0.00 0.00 0.00 85 1016.0
20260507041601 60 0 0.0 2.0 0.00 0.00 0.00 85 1015.9
20260507041051 60 0 0.0 4.0 0.00 0.00 0.00 85 1015.8
20260507040555 60 0 1.0 4.0 0.00 0.00 0.00 85 1015.8
20260507040055 60 81 1.0 3.0 0.00 0.00 0.00 84 1015.6
20260507035555 60 0 0.0 0.0 0.00 0.00 0.00 84 1015.8
20260507035055 60 0 0.0 1.0 0.00 0.00 0.00 84 1015.9
20260507034559 60 0 0.0 1.0 0.00 0.00 0.00 84 1015.8
20260507034056 60 0 0.0 3.0 0.00 0.00 0.00 84 1015.6
20260507033558 60 0 0.0 3.0 0.00 0.00 0.00 84 1015.5
20260507033104 60 0 1.0 3.0 0.00 0.00 0.00 84 1015.4
20260507032555 60 0 0.0 2.0 0.00 0.00 0.00 83 1015.5
20260507032055 60 0 0.0 2.0 0.00 0.00 0.00 83 1015.4
20260507031606 60 0 0.0 2.0 0.00 0.00 0.00 83 1015.4
20260507031056 60 0 0.0 3.0 0.00 0.00 0.00 83 1015.3
20260507030555 60 0 0.0 5.0 0.00 0.00 0.00 83 1015.3
20260507030058 60 292 0.0 6.0 0.00 0.00 0.00 83 1015.3
20260507025559 60 227 2.0 6.0 0.00 0.00 0.00 83 1015.2
20260507025055 60 273 1.0 6.0 0.00 0.00 0.00 82 1015.2
20260507024554 60 294 3.0 7.0 0.00 0.00 0.00 81 1015.2
20260507024056 61 271 4.0 7.0 0.00 0.00 0.00 81 1015.2
20260507023555 61 263 1.0 6.0 0.00 0.00 0.00 80 1015.1
20260507023103 61 185 2.0 5.0 0.00 0.00 0.00 80 1015.0
20260507022555 61 196 1.0 9.0 0.00 0.00 0.00 80 1015.1
20260507022055 61 244 3.0 9.0 0.00 0.00 0.00 80 1015.0
20260507021553 61 273 3.0 11.0 0.00 0.00 0.00 80 1015.1
20260507021057 61 273 6.0 11.0 0.00 0.00 0.00 78 1015.0
20260507020556 61 244 5.0 12.0 0.00 0.00 0.00 78 1014.9
20260507020057 61 260 6.0 12.0 0.00 0.00 0.00 78 1014.9
20260507015554 62 261 8.0 12.0 0.00 0.00 0.00 76 1014.8
20260507015055 62 272 6.0 11.0 0.00 0.00 0.00 76 1014.8
20260507014604 62 279 6.0 13.0 0.00 0.00 0.00 76 1014.9
20260507014056 62 276 3.0 13.0 0.00 0.00 0.00 76 1014.9
20260507013556 62 276 7.0 13.0 0.00 0.00 0.00 75 1015.0
20260507013102 62 284 7.0 11.0 0.00 0.00 0.00 76 1014.9
20260507012555 62 259 3.0 15.0 0.00 0.00 0.00 78 1014.8
20260507012100 62 238 6.0 15.0 0.00 0.00 0.00 77 1014.8
20260507011557 62 272 9.0 15.0 0.00 0.00 0.00 75 1014.8
20260507011059 63 243 5.0 14.0 0.00 0.00 0.00 77 1014.8
20260507010555 63 243 4.0 12.0 0.00 0.00 0.00 77 1014.8
20260507005555 62 236 9.0 14.0 0.00 0.00 0.00 76 1014.8
20260507005055 63 278 9.0 16.0 0.00 0.00 0.00 75 1014.7
20260507004557 63 267 8.0 16.0 0.00 0.00 0.00 74 1014.8
20260507004056 63 267 9.0 15.0 0.00 0.00 0.00 72 1014.7
20260507003555 64 275 8.0 15.0 0.00 0.00 0.00 72 1014.7
20260507003057 65 305 10.0 15.0 0.00 0.00 0.00 70 1014.7
20260507002556 66 265 3.0 12.0 0.00 0.00 0.00 72 1014.6
20260507002055 65 227 4.0 12.0 0.00 0.00 0.00 71 1014.7
20260507001602 65 186 5.0 15.0 0.00 0.00 0.00 70 1014.7
20260507001055 65 222 4.0 15.0 0.00 0.00 0.00 69 1014.7
20260507000555 65 267 7.0 15.0 0.00 0.00 0.00 67 1014.7
20260507000056 66 281 7.0 15.0 0.00 0.00 0.00 66 1014.7
20260506235558 66 213 4.0 11.0 0.00 0.00 0.00 69 1014.6
20260506235055 66 227 6.0 11.0 0.00 0.00 0.00 68 1014.6
20260506234554 66 208 4.0 12.0 0.00 0.00 0.00 67 1014.6
20260506234055 66 168 6.0 13.0 0.00 0.00 0.00 67 1014.6
20260506233555 66 267 4.0 13.0 0.00 0.00 0.00 68 1014.6
20260506233114 66 240 8.0 14.0 0.00 0.00 0.00 68 1014.7
20260506232554 66 282 6.0 14.0 0.00 0.00 0.00 68 1014.7
20260506232054 66 201 7.0 14.0 0.00 0.00 0.00 68 1014.7
20260506231555 66 265 6.0 14.0 0.00 0.00 0.00 67 1014.8
20260506231056 66 284 6.0 14.0 0.00 0.00 0.00 66 1014.7
20260506230555 66 224 6.0 12.0 0.00 0.00 0.00 65 1014.8
20260506230052 66 229 6.0 16.0 0.00 0.00 0.00 67 1014.8
20260506225555 66 149 8.0 16.0 0.00 0.00 0.00 66 1014.8
20260506225054 66 213 7.0 16.0 0.00 0.00 0.00 66 1014.7
20260506224554 66 175 7.0 16.0 0.00 0.00 0.00 65 1014.9
20260506224058 66 192 7.0 14.0 0.00 0.00 0.00 65 1015.0
20260506223559 66 296 8.0 14.0 0.00 0.00 0.00 64 1015.1
20260506223055 66 280 8.0 14.0 0.00 0.00 0.00 65 1015.1
20260506222555 66 275 4.0 15.0 0.00 0.00 0.00 65 1015.2
20260506222055 66 268 8.0 15.0 0.00 0.00 0.00 65 1015.2
20260506221558 67 217 6.0 15.0 0.00 0.00 0.00 64 1015.3
20260506221054 67 166 4.0 15.0 0.00 0.00 0.00 64 1015.3
20260506220555 66 275 7.0 15.0 0.00 0.00 0.00 64 1015.5
20260506220056 66 314 7.0 15.0 0.00 0.00 0.00 63 1015.5
20260506215554 66 275 8.0 13.0 0.00 0.00 0.00 63 1015.5
20260506215054 66 261 8.0 14.0 0.00 0.00 0.00 64 1015.6